Weather History for Dayton Wright, OH

Change the Weather History Date:

Wednesday, January 2, 2013

  Actual Average (KFFO) Record (KFFO)
Temperature  
Mean Temperature 18 °F -  
Max Temperature 24 °F 37 °F 62 °F (2000)
Min Temperature 12 °F 22 °F 6 °F (2001)
Degree Days  
Heating Degree Days 47    
Moisture  
Dew Point 13 °F    
Average Humidity 81    
Maximum Humidity 93    
Minimum Humidity 57    
Precipitation  
Precipitation 0.00 in - - ()
Sea Level Pressure  
Sea Level Pressure 30.20 in    
Wind  
Wind Speed 1 mph (NW)    
Max Wind Speed 5 mph    
Max Gust Speed -    
Visibility 6 miles    
Events      
Averages and records for this station are not official NWS values.
T = Trace of Precipitation, MM = Missing Value Source: NWS Daily Summary

Daily Weather History Graph

Daily Weather History Graph

Search for Another Location

Airport:

Trip Planner

Search our weather history database for the weather conditions in past years. The results will help you decide how hot, cold, wet, or windy it might be!

Date:

Astronomy

Jan. 02, 2013 Rise Set
Actual Time 7:57 AM EST 5:24 PM EST
Civil Twilight 7:27 AM EST 5:54 PM EST
Nautical Twilight 6:53 AM EST 6:28 PM EST
Astronomical Twilight 6:21 AM EST 7:01 PM EST
Moon 10:54 PM EST (1/2) 10:40 AM EST (1/2)
Length of Visible Light 10h 27m
Length of Day
9h 27m
Waning Gibbous, 75% of the Moon is Illuminated
Jan 2
Waning Gibbous
Jan 4
Last Quarter
Jan 11
New
Jan 18
First Quarter
Jan 26
Full

Hourly Weather History & Observations

Time (EST) Temp. Windchill Dew Point Humidity Pressure Visibility Wind Dir Wind Speed Gust Speed Precip Events Conditions
12:53 AM 21.9 °F - 18.0 °F 85% 30.15 in 7.0 mi Calm Calm - N/A   Overcast
1:53 AM 21.0 °F - 18.0 °F 88% 30.14 in 5.0 mi Calm Calm - N/A   Partly Cloudy
2:53 AM 21.0 °F - 18.0 °F 88% 30.16 in 5.0 mi Calm Calm - N/A   Clear
3:53 AM 19.0 °F 12.3 °F 17.1 °F 92% 30.18 in 5.0 mi NW 4.6 mph - N/A   Clear
4:53 AM 18.0 °F 12.7 °F 16.0 °F 92% 30.18 in 5.0 mi NW 3.5 mph - N/A   Clear
5:53 AM 17.1 °F 11.7 °F 14.0 °F 88% 30.19 in 4.0 mi NW 3.5 mph - N/A   Clear
6:10 AM 15.8 °F - 12.2 °F 86% 30.15 in 2.5 mi Calm Calm - N/A   Partly Cloudy
6:20 AM 15.8 °F 10.2 °F 12.2 °F 86% 30.15 in 1.0 mi NNW 3.5 mph - N/A   Mist
6:36 AM 15.8 °F - 12.2 °F 86% 30.15 in 2.5 mi Calm Calm - N/A   Scattered Clouds
6:44 AM 15.8 °F - 12.2 °F 86% 30.15 in 4.0 mi Calm Calm - N/A   Scattered Clouds
6:53 AM 14.0 °F - 12.0 °F 92% 30.19 in 3.0 mi Calm Calm - N/A   Partly Cloudy
7:01 AM 14.0 °F - 10.4 °F 86% 30.15 in 2.5 mi Calm Calm - N/A   Clear
7:11 AM 15.8 °F - 10.4 °F 79% 30.15 in 3.0 mi Calm Calm - N/A   Clear
7:53 AM 12.9 °F - 10.0 °F 88% 30.20 in 2.5 mi Calm Calm - N/A   Clear
8:04 AM 12.2 °F - 10.4 °F 92% 30.16 in 1.2 mi Calm Calm - N/A   Clear
8:35 AM 14.0 °F - 10.4 °F 86% 30.18 in 2.0 mi Calm Calm - N/A   Clear
8:53 AM 14.0 °F - 10.9 °F 88% 30.23 in 2.0 mi Calm Calm - N/A   Clear
10:28 AM 15.8 °F - 14.0 °F 93% 30.22 in 3.0 mi Calm Calm - N/A   Clear
10:53 AM 17.1 °F - 15.1 °F 92% 30.27 in 3.0 mi Calm Calm - N/A   Clear
11:53 AM 19.0 °F - 16.0 °F 88% 30.26 in 6.0 mi Calm Calm - N/A   Clear
12:53 PM 21.0 °F - 15.1 °F 78% 30.23 in 8.0 mi Calm Calm - N/A   Clear
1:53 PM 21.9 °F - 15.1 °F 75% 30.22 in 10.0 mi Calm Calm - N/A   Clear
2:53 PM 23.0 °F - 14.0 °F 68% 30.22 in 10.0 mi Calm Calm - N/A   Clear
3:53 PM 24.1 °F - 10.9 °F 57% 30.22 in 10.0 mi Calm Calm - N/A   Clear
4:53 PM 23.0 °F - 10.9 °F 60% 30.22 in 10.0 mi Calm Calm - N/A   Clear
5:53 PM 21.9 °F - 10.9 °F 63% 30.23 in 10.0 mi Calm Calm - N/A   Clear
6:53 PM 19.9 °F - 12.0 °F 71% 30.25 in 10.0 mi Calm Calm - N/A   Clear
7:53 PM 19.9 °F 14.9 °F 10.9 °F 68% 30.26 in 10.0 mi WNW 3.5 mph - N/A   Clear
8:53 PM 19.9 °F - 9.0 °F 62% 30.27 in 10.0 mi Calm Calm - N/A   Clear
9:53 PM 16.0 °F - 9.0 °F 74% 30.27 in 10.0 mi Calm Calm - N/A   Clear
10:53 PM 16.0 °F - 10.0 °F 77% 30.24 in 10.0 mi Calm Calm - N/A   Clear